Time,TemperatureF,DewpointF,PressureIn,WindDirection,WindDirectionDegrees,WindSpeedMPH,WindSpeedGustMPH,Humidity,HourlyPrecipIn,Conditions,Clouds,dailyrainin,SoftwareType,DateUTC
2013-08-15 00:00:00,62.0,50.9,29.96,SSW,193,0.0,0.0,67,0.00,,---,0.00,VWS V14.00,2013-08-15 06:00:00,
2013-08-15 00:06:00,61.9,50.8,29.94,SSW,192,0.0,0.0,67,0.00,,---,0.00,VWS V14.00,2013-08-15 06:06:00,
2013-08-15 00:12:00,61.8,50.7,29.94,North,0,0.0,0.0,67,0.00,,---,0.00,VWS V14.00,2013-08-15 06:12:00,
2013-08-15 00:17:00,61.7,50.6,29.94,SSW,193,0.0,0.0,67,0.00,,---,0.00,VWS V14.00,2013-08-15 06:17:00,
2013-08-15 00:22:00,61.6,50.5,29.94,SSW,192,0.0,0.0,67,0.00,,---,0.00,VWS V14.00,2013-08-15 06:22:00,
2013-08-15 00:27:00,61.5,50.5,29.94,SSW,192,0.0,0.0,67,0.00,,---,0.00,VWS V14.00,2013-08-15 06:27:00,
2013-08-15 00:32:00,61.4,50.4,29.95,SSW,193,0.0,0.0,67,0.00,,---,0.00,VWS V14.00,2013-08-15 06:32:00,
2013-08-15 00:37:00,61.3,50.7,29.95,SSW,193,0.0,0.0,68,0.00,,---,0.00,VWS V14.00,2013-08-15 06:37:00,
2013-08-15 00:42:00,61.2,50.6,29.95,SSW,193,0.0,0.0,68,0.00,,---,0.00,VWS V14.00,2013-08-15 06:42:00,
2013-08-15 00:47:00,61.0,50.8,29.95,SSW,192,0.0,0.0,69,0.00,,---,0.00,VWS V14.00,2013-08-15 06:47:00,
2013-08-15 00:53:00,60.7,50.9,29.94,SSW,192,0.0,0.0,70,0.00,,---,0.00,VWS V14.00,2013-08-15 06:53:00,
2013-08-15 00:58:00,60.5,50.7,29.94,SSW,193,0.0,0.0,70,0.00,,---,0.00,VWS V14.00,2013-08-15 06:58:00,
2013-08-15 01:03:00,60.4,50.6,29.93,SSW,192,0.0,0.0,70,0.00,,---,0.00,VWS V14.00,2013-08-15 07:03:00,
2013-08-15 01:08:00,60.3,50.5,29.92,SSW,192,0.0,0.0,70,0.00,,---,0.00,VWS V14.00,2013-08-15 07:08:00,
2013-08-15 01:13:00,60.2,50.4,29.92,SSW,193,0.0,0.0,70,0.00,,---,0.00,VWS V14.00,2013-08-15 07:13:00,
2013-08-15 01:18:00,60.0,50.2,29.92,SSW,193,0.0,0.0,70,0.00,,---,0.00,VWS V14.00,2013-08-15 07:18:00,
2013-08-15 01:23:00,59.9,50.1,29.92,SSW,193,0.0,0.0,70,0.00,,---,0.00,VWS V14.00,2013-08-15 07:23:00,
2013-08-15 01:28:00,59.8,50.4,29.92,SSW,192,0.0,0.0,71,0.00,,---,0.00,VWS V14.00,2013-08-15 07:28:00,
2013-08-15 01:34:00,59.6,50.2,29.92,SSW,193,0.0,0.0,71,0.00,,---,0.00,VWS V14.00,2013-08-15 07:34:00,
2013-08-15 01:40:00,59.5,50.1,29.92,SSW,193,0.0,0.0,71,0.00,,---,0.00,VWS V14.00,2013-08-15 07:40:00,
2013-08-15 01:45:00,59.4,50.0,29.91,SSW,193,0.0,0.0,71,0.00,,---,0.00,VWS V14.00,2013-08-15 07:45:00,
2013-08-15 01:50:00,59.3,49.9,29.92,SSW,192,0.0,0.0,71,0.00,,---,0.00,VWS V14.00,2013-08-15 07:50:00,
2013-08-15 01:55:00,59.1,49.7,29.91,SSW,192,0.0,0.0,71,0.00,,---,0.00,VWS V14.00,2013-08-15 07:55:00,
2013-08-15 02:00:00,59.0,49.2,29.91,SSW,193,0.0,0.0,70,0.00,,---,0.00,VWS V14.00,2013-08-15 08:00:00,
2013-08-15 02:05:00,59.0,49.2,29.91,SSW,193,0.0,0.0,70,0.00,,---,0.00,VWS V14.00,2013-08-15 08:05:00,
2013-08-15 02:10:00,59.0,49.2,29.91,SSW,192,0.0,0.0,70,0.00,,---,0.00,VWS V14.00,2013-08-15 08:10:00,
2013-08-15 02:15:00,59.0,49.2,29.90,SSW,193,0.0,0.0,70,0.00,,---,0.00,VWS V14.00,2013-08-15 08:15:00,
2013-08-15 02:20:00,58.8,49.0,29.90,SSW,193,0.0,0.0,70,0.00,,---,0.00,VWS V14.00,2013-08-15 08:20:00,
2013-08-15 02:25:00,58.6,48.9,29.90,SSW,192,0.0,0.0,70,0.00,,---,0.00,VWS V14.00,2013-08-15 08:25:00,
2013-08-15 02:30:00,58.5,48.8,29.90,SSW,192,0.0,0.0,70,0.00,,---,0.00,VWS V14.00,2013-08-15 08:30:00,
2013-08-15 02:35:00,58.4,48.7,29.90,SSW,193,0.0,0.0,70,0.00,,---,0.00,VWS V14.00,2013-08-15 08:35:00,
2013-08-15 02:40:00,58.3,48.6,29.90,SSW,193,0.0,0.0,70,0.00,,---,0.00,VWS V14.00,2013-08-15 08:40:00,
2013-08-15 02:45:00,58.2,48.8,29.90,SSW,193,0.0,0.0,71,0.00,,---,0.00,VWS V14.00,2013-08-15 08:45:00,
2013-08-15 02:50:00,58.1,48.8,29.90,SSW,192,0.0,0.0,71,0.00,,---,0.00,VWS V14.00,2013-08-15 08:50:00,
2013-08-15 02:55:00,58.0,48.7,29.90,SSW,193,0.0,0.0,71,0.00,,---,0.00,VWS V14.00,2013-08-15 08:55:00,
2013-08-15 03:00:00,57.9,48.6,29.90,SSW,193,0.0,0.0,71,0.00,,---,0.00,VWS V14.00,2013-08-15 09:00:00,
2013-08-15 03:05:00,57.8,48.5,29.90,SSW,192,0.0,0.0,71,0.00,,---,0.00,VWS V14.00,2013-08-15 09:05:00,
2013-08-15 03:10:00,57.7,48.4,29.90,SSW,192,0.0,0.0,71,0.00,,---,0.00,VWS V14.00,2013-08-15 09:10:00,
2013-08-15 03:15:00,57.6,48.7,29.90,SSW,193,0.0,1.0,72,0.00,,---,0.00,VWS V14.00,2013-08-15 09:15:00,
2013-08-15 03:20:00,57.8,48.5,29.90,SSW,193,0.0,0.0,71,0.00,,---,0.00,VWS V14.00,2013-08-15 09:20:00,
2013-08-15 03:25:00,58.0,48.3,29.90,SSW,192,0.0,0.0,70,0.00,,---,0.00,VWS V14.00,2013-08-15 09:25:00,
2013-08-15 03:30:00,58.3,48.2,29.90,SSW,193,0.0,0.0,69,0.00,,---,0.00,VWS V14.00,2013-08-15 09:30:00,
2013-08-15 03:35:00,58.6,48.5,29.88,SSW,193,0.0,0.0,69,0.00,,---,0.00,VWS V14.00,2013-08-15 09:35:00,
2013-08-15 03:40:00,58.7,48.2,29.89,SSW,193,0.0,0.0,68,0.00,,---,0.00,VWS V14.00,2013-08-15 09:40:00,
2013-08-15 03:45:00,59.0,48.1,29.89,SSW,192,0.0,0.0,67,0.00,,---,0.00,VWS V14.00,2013-08-15 09:45:00,
2013-08-15 03:50:00,59.0,48.1,29.88,SSW,193,0.0,0.0,67,0.00,,---,0.00,VWS V14.00,2013-08-15 09:50:00,
2013-08-15 03:55:00,59.0,48.1,29.88,SSW,193,0.0,0.0,67,0.00,,---,0.00,VWS V14.00,2013-08-15 09:55:00,
2013-08-15 04:00:00,59.0,47.7,29.88,SSW,198,0.0,3.0,66,0.00,,---,0.00,VWS V14.00,2013-08-15 10:00:00,
2013-08-15 04:05:00,59.4,48.0,29.89,SSW,199,0.0,0.0,66,0.00,,---,0.00,VWS V14.00,2013-08-15 10:05:00,
2013-08-15 04:10:00,59.5,48.2,29.89,SSW,199,0.0,0.0,66,0.00,,---,0.00,VWS V14.00,2013-08-15 10:10:00,
2013-08-15 04:15:00,59.5,48.2,29.89,SSW,199,0.0,2.0,66,0.00,,---,0.00,VWS V14.00,2013-08-15 10:15:00,
2013-08-15 04:20:00,59.6,47.8,29.89,SSW,199,0.0,4.0,65,0.00,,---,0.00,VWS V14.00,2013-08-15 10:20:00,
2013-08-15 04:25:00,59.9,48.5,29.89,SSW,199,0.0,4.0,66,0.00,,---,0.00,VWS V14.00,2013-08-15 10:25:00,
2013-08-15 04:30:00,60.1,48.3,29.89,SSW,199,0.0,0.0,65,0.00,,---,0.00,VWS V14.00,2013-08-15 10:30:00,
2013-08-15 04:35:00,60.1,48.3,29.89,SSW,194,0.0,0.0,65,0.00,,---,0.00,VWS V14.00,2013-08-15 10:35:00,
2013-08-15 04:40:00,60.2,48.0,29.89,SSW,198,0.0,5.0,64,0.00,,---,0.00,VWS V14.00,2013-08-15 10:40:00,
2013-08-15 04:45:00,60.2,48.0,29.89,SSW,198,0.0,0.0,64,0.00,,---,0.00,VWS V14.00,2013-08-15 10:45:00,
2013-08-15 04:50:00,60.1,47.9,29.89,SW,218,0.0,0.0,64,0.00,,---,0.00,VWS V14.00,2013-08-15 10:50:00,
2013-08-15 04:55:00,60.0,47.8,29.88,SW,218,0.0,0.0,64,0.00,,---,0.00,VWS V14.00,2013-08-15 10:55:00,
2013-08-15 05:00:00,60.0,48.2,29.88,SW,218,0.0,0.0,65,0.00,,---,0.00,VWS V14.00,2013-08-15 11:00:00,
2013-08-15 05:05:00,59.8,47.6,29.90,SW,218,0.0,0.0,64,0.00,,---,0.00,VWS V14.00,2013-08-15 11:05:00,
2013-08-15 05:10:00,59.7,47.5,29.90,SW,218,0.0,0.0,64,0.00,,---,0.00,VWS V14.00,2013-08-15 11:10:00,
2013-08-15 05:15:00,59.7,47.5,29.90,SW,218,0.0,0.0,64,0.00,,---,0.00,VWS V14.00,2013-08-15 11:15:00,
2013-08-15 05:20:00,59.6,47.4,29.90,SW,218,0.0,1.0,64,0.00,,---,0.00,VWS V14.00,2013-08-15 11:20:00,
2013-08-15 05:25:00,59.4,47.2,29.90,SW,218,0.0,1.0,64,0.00,,---,0.00,VWS V14.00,2013-08-15 11:25:00,
2013-08-15 05:30:00,59.2,47.5,29.91,SW,218,0.0,0.0,65,0.00,,---,0.00,VWS V14.00,2013-08-15 11:30:00,
2013-08-15 05:35:00,59.0,47.3,29.91,SW,214,0.0,3.0,65,0.00,,---,0.00,VWS V14.00,2013-08-15 11:35:00,
2013-08-15 05:40:00,59.0,47.3,29.91,SW,214,0.0,0.0,65,0.00,,---,0.00,VWS V14.00,2013-08-15 11:40:00,
2013-08-15 05:45:00,59.0,47.3,29.91,SSW,207,1.0,1.0,65,0.00,,---,0.00,VWS V14.00,2013-08-15 11:45:00,
2013-08-15 05:50:00,59.0,46.8,29.91,SSW,207,0.0,0.0,64,0.00,,---,0.00,VWS V14.00,2013-08-15 11:50:00,
2013-08-15 05:55:00,59.1,47.0,29.91,SSW,207,0.0,1.0,64,0.00,,---,0.00,VWS V14.00,2013-08-15 11:55:00,
2013-08-15 06:00:00,59.0,46.8,29.91,SSW,207,0.0,0.0,64,0.00,,---,0.00,VWS V14.00,2013-08-15 12:00:00,
2013-08-15 06:05:00,59.2,46.6,29.92,SSW,207,0.0,1.0,63,0.00,,---,0.00,VWS V14.00,2013-08-15 12:05:00,
2013-08-15 06:10:00,59.4,46.8,29.92,SSW,206,0.0,3.0,63,0.00,,---,0.00,VWS V14.00,2013-08-15 12:10:00,
2013-08-15 06:15:00,59.6,46.6,29.91,SSW,201,4.0,4.0,62,0.00,,---,0.00,VWS V14.00,2013-08-15 12:15:00,
2013-08-15 06:20:00,59.8,46.3,29.91,SSW,202,0.0,0.0,61,0.00,,---,0.00,VWS V14.00,2013-08-15 12:20:00,
2013-08-15 06:25:00,59.8,46.3,29.91,South,176,1.0,3.0,61,0.00,,---,0.00,VWS V14.00,2013-08-15 12:25:00,
2013-08-15 06:30:00,60.0,46.5,29.91,SSW,198,3.0,5.0,61,0.00,,---,0.00,VWS V14.00,2013-08-15 12:30:00,
2013-08-15 06:35:00,60.1,46.2,29.92,SSW,194,0.0,2.0,60,0.00,,---,0.00,VWS V14.00,2013-08-15 12:35:00,
2013-08-15 06:40:00,60.3,46.4,29.92,SSW,200,2.0,5.0,60,0.00,,---,0.00,VWS V14.00,2013-08-15 12:40:00,
2013-08-15 06:45:00,60.4,46.0,29.92,SSW,192,0.0,0.0,59,0.00,,---,0.00,VWS V14.00,2013-08-15 12:45:00,
2013-08-15 06:50:00,60.7,46.3,29.92,SSW,192,0.0,0.0,59,0.00,,---,0.00,VWS V14.00,2013-08-15 12:50:00,
2013-08-15 06:56:00,60.7,46.3,29.92,SSW,192,2.0,2.0,59,0.00,,---,0.00,VWS V14.00,2013-08-15 12:56:00,
2013-08-15 07:01:00,60.7,46.3,29.92,SSW,192,0.0,2.0,59,0.00,,---,0.00,VWS V14.00,2013-08-15 13:01:00,
2013-08-15 07:06:00,60.8,46.4,29.92,SSW,192,0.0,2.0,59,0.00,,---,0.00,VWS V14.00,2013-08-15 13:06:00,
2013-08-15 07:11:00,60.9,46.5,29.92,SSW,192,1.0,3.0,59,0.00,,---,0.00,VWS V14.00,2013-08-15 13:11:00,
2013-08-15 07:16:00,61.1,46.2,29.92,SSW,193,0.0,2.0,58,0.00,,---,0.00,VWS V14.00,2013-08-15 13:16:00,
2013-08-15 07:22:00,61.3,46.4,29.92,SSW,193,0.0,0.0,58,0.00,,---,0.00,VWS V14.00,2013-08-15 13:22:00,
2013-08-15 07:27:00,61.4,46.5,29.92,SSW,193,0.0,0.0,58,0.00,,---,0.00,VWS V14.00,2013-08-15 13:27:00,
2013-08-15 07:32:00,61.4,46.5,29.92,SSW,192,0.0,1.0,58,0.00,,---,0.00,VWS V14.00,2013-08-15 13:32:00,
2013-08-15 07:37:00,61.5,47.1,29.93,SSW,193,0.0,0.0,59,0.00,,---,0.00,VWS V14.00,2013-08-15 13:37:00,
2013-08-15 07:43:00,61.7,47.2,29.93,SSW,193,0.0,0.0,59,0.00,,---,0.00,VWS V14.00,2013-08-15 13:43:00,
2013-08-15 07:48:00,61.7,47.2,29.93,SSW,192,0.0,0.0,59,0.00,,---,0.00,VWS V14.00,2013-08-15 13:48:00,
2013-08-15 07:54:00,62.3,48.2,29.93,SSW,192,0.0,0.0,60,0.00,,---,0.00,VWS V14.00,2013-08-15 13:54:00,
2013-08-15 08:00:00,63.4,49.3,29.93,SSW,192,0.0,0.0,60,0.00,,---,0.00,VWS V14.00,2013-08-15 14:00:00,
2013-08-15 08:06:00,64.9,49.3,29.94,SSW,195,0.0,2.0,57,0.00,,---,0.00,VWS V14.00,2013-08-15 14:06:00,
2013-08-15 08:11:00,65.4,49.8,29.94,SSW,196,0.0,1.0,57,0.00,,---,0.00,VWS V14.00,2013-08-15 14:11:00,
2013-08-15 08:17:00,65.9,49.8,29.93,NE,44,0.0,2.0,56,0.00,,---,0.00,VWS V14.00,2013-08-15 14:17:00,
2013-08-15 08:22:00,65.8,50.6,29.94,NE,41,0.0,1.0,58,0.00,,---,0.00,VWS V14.00,2013-08-15 14:22:00,
2013-08-15 08:27:00,65.3,49.7,29.95,NE,40,0.0,1.0,57,0.00,,---,0.00,VWS V14.00,2013-08-15 14:27:00,
2013-08-15 08:32:00,65.2,49.1,29.95,NE,40,0.0,2.0,56,0.00,,---,0.00,VWS V14.00,2013-08-15 14:32:00,
2013-08-15 08:37:00,65.3,48.7,29.95,NE,40,0.0,1.0,55,0.00,,---,0.00,VWS V14.00,2013-08-15 14:37:00,
2013-08-15 08:42:00,65.5,50.3,29.96,NE,40,0.0,0.0,58,0.00,,---,0.00,VWS V14.00,2013-08-15 14:42:00,
2013-08-15 08:48:00,65.9,49.3,29.95,NE,40,0.0,1.0,55,0.00,,---,0.00,VWS V14.00,2013-08-15 14:48:00,
2013-08-15 08:53:00,66.3,49.7,29.95,NE,40,0.0,1.0,55,0.00,,---,0.00,VWS V14.00,2013-08-15 14:53:00,
2013-08-15 08:59:00,66.9,49.7,29.94,WNW,303,0.0,6.0,54,0.00,,---,0.00,VWS V14.00,2013-08-15 14:59:00,
2013-08-15 09:05:00,66.6,50.0,29.96,North,349,4.0,4.0,55,0.00,,---,0.00,VWS V14.00,2013-08-15 15:05:00,
2013-08-15 09:10:00,66.8,50.6,29.96,NNW,347,0.0,1.0,56,0.00,,---,0.00,VWS V14.00,2013-08-15 15:10:00,
2013-08-15 09:15:00,67.2,51.5,29.96,NNW,338,3.0,4.0,57,0.00,,---,0.00,VWS V14.00,2013-08-15 15:15:00,
2013-08-15 09:21:00,67.4,52.6,29.96,NW,307,0.0,6.0,59,0.00,,---,0.00,VWS V14.00,2013-08-15 15:21:00,
2013-08-15 09:26:00,67.4,52.6,29.96,ENE,64,0.0,4.0,59,0.00,,---,0.00,VWS V14.00,2013-08-15 15:26:00,
2013-08-15 09:31:00,67.2,52.4,29.96,North,5,0.0,6.0,59,0.00,,---,0.00,VWS V14.00,2013-08-15 15:31:00,
2013-08-15 09:36:00,67.1,52.3,29.96,NNW,340,1.0,5.0,59,0.00,,---,0.00,VWS V14.00,2013-08-15 15:36:00,
2013-08-15 09:41:00,67.2,52.4,29.95,NW,317,0.0,1.0,59,0.00,,---,0.00,VWS V14.00,2013-08-15 15:41:00,
2013-08-15 09:46:00,67.7,52.9,29.96,NE,44,0.0,4.0,59,0.00,,---,0.00,VWS V14.00,2013-08-15 15:46:00,
2013-08-15 09:51:00,67.9,52.6,29.96,NNW,331,0.0,3.0,58,0.00,,---,0.00,VWS V14.00,2013-08-15 15:51:00,
2013-08-15 09:56:00,68.3,53.9,29.96,North,355,0.0,1.0,60,0.00,,---,0.00,VWS V14.00,2013-08-15 15:56:00,
2013-08-15 10:01:00,68.6,52.8,29.95,NNW,329,0.0,5.0,57,0.00,,---,0.00,VWS V14.00,2013-08-15 16:01:00,
2013-08-15 10:06:00,68.6,52.8,29.97,NW,308,0.0,1.0,57,0.00,,---,0.00,VWS V14.00,2013-08-15 16:06:00,
2013-08-15 10:11:00,68.6,51.8,29.97,NNE,26,0.0,2.0,55,0.00,,---,0.00,VWS V14.00,2013-08-15 16:11:00,
2013-08-15 10:16:00,68.7,52.4,29.98,NE,36,3.0,4.0,56,0.00,,---,0.00,VWS V14.00,2013-08-15 16:16:00,
2013-08-15 10:21:00,68.4,52.1,29.98,North,5,3.0,5.0,56,0.00,,---,0.00,VWS V14.00,2013-08-15 16:21:00,
2013-08-15 10:26:00,68.5,52.2,29.98,NNE,33,0.0,2.0,56,0.00,,---,0.00,VWS V14.00,2013-08-15 16:26:00,
2013-08-15 10:32:00,68.9,53.1,29.98,NE,55,0.0,3.0,57,0.00,,---,0.00,VWS V14.00,2013-08-15 16:32:00,
2013-08-15 10:37:00,68.9,53.5,29.98,NE,38,0.0,3.0,58,0.00,,---,0.00,VWS V14.00,2013-08-15 16:37:00,
2013-08-15 10:42:00,69.3,53.4,29.98,NNW,338,0.0,4.0,57,0.00,,---,0.00,VWS V14.00,2013-08-15 16:42:00,
2013-08-15 10:47:00,69.5,53.6,29.97,North,5,0.0,5.0,57,0.00,,---,0.00,VWS V14.00,2013-08-15 16:47:00,
2013-08-15 10:53:00,70.0,54.1,29.97,NE,38,0.0,1.0,57,0.00,,---,0.00,VWS V14.00,2013-08-15 16:53:00,
2013-08-15 10:58:00,70.1,54.2,29.97,NNE,26,0.0,1.0,57,0.00,,---,0.00,VWS V14.00,2013-08-15 16:58:00,
2013-08-15 11:03:00,70.0,53.6,29.98,NE,37,0.0,2.0,56,0.00,,---,0.00,VWS V14.00,2013-08-15 17:03:00,
2013-08-15 11:08:00,70.2,54.8,29.98,NE,34,0.0,1.0,58,0.00,,---,0.00,VWS V14.00,2013-08-15 17:08:00,
2013-08-15 11:13:00,70.9,54.4,29.98,NE,35,1.0,2.0,56,0.00,,---,0.00,VWS V14.00,2013-08-15 17:13:00,
2013-08-15 11:18:00,71.5,54.0,29.97,NNE,25,0.0,4.0,54,0.00,,---,0.00,VWS V14.00,2013-08-15 17:18:00,
2013-08-15 11:23:00,71.0,53.5,29.98,NE,45,0.0,2.0,54,0.00,,---,0.00,VWS V14.00,2013-08-15 17:23:00,
2013-08-15 11:28:00,71.8,53.8,29.97,North,9,0.0,0.0,53,0.00,,---,0.00,VWS V14.00,2013-08-15 17:28:00,
2013-08-15 11:33:00,71.6,54.6,29.97,North,5,4.0,5.0,55,0.00,,---,0.00,VWS V14.00,2013-08-15 17:33:00,
2013-08-15 11:39:00,71.6,54.6,29.96,NE,40,0.0,1.0,55,0.00,,---,0.00,VWS V14.00,2013-08-15 17:39:00,
2013-08-15 11:45:00,71.9,53.3,29.96,NE,38,0.0,1.0,52,0.00,,---,0.00,VWS V14.00,2013-08-15 17:45:00,
2013-08-15 11:50:00,71.8,53.2,29.96,NNE,32,2.0,5.0,52,0.00,,---,0.00,VWS V14.00,2013-08-15 17:50:00,
2013-08-15 11:56:00,72.3,53.2,29.95,NE,34,0.0,0.0,51,0.00,,---,0.00,VWS V14.00,2013-08-15 17:56:00,
2013-08-15 12:01:00,72.2,52.5,29.95,NNW,345,4.0,5.0,50,0.00,,---,0.00,VWS V14.00,2013-08-15 18:01:00,
2013-08-15 12:06:00,72.8,53.1,29.97,NNW,331,0.0,1.0,50,0.00,,---,0.00,VWS V14.00,2013-08-15 18:06:00,
2013-08-15 12:11:00,73.1,54.5,29.96,NNW,345,0.0,0.0,52,0.00,,---,0.00,VWS V14.00,2013-08-15 18:11:00,
2013-08-15 12:16:00,73.1,54.5,29.96,NNW,344,0.0,0.0,52,0.00,,---,0.00,VWS V14.00,2013-08-15 18:16:00,
2013-08-15 12:21:00,73.6,54.9,29.95,NNW,337,0.0,0.0,52,0.00,,---,0.00,VWS V14.00,2013-08-15 18:21:00,
2013-08-15 12:27:00,73.9,53.0,29.95,NNE,19,0.0,2.0,48,0.00,,---,0.00,VWS V14.00,2013-08-15 18:27:00,
2013-08-15 12:33:00,73.7,55.0,29.95,NNE,21,3.0,3.0,52,0.00,,---,0.00,VWS V14.00,2013-08-15 18:33:00,
2013-08-15 12:39:00,74.7,57.0,29.94,NE,46,2.0,2.0,54,0.00,,---,0.00,VWS V14.00,2013-08-15 18:39:00,
2013-08-15 12:44:00,75.1,54.1,29.94,NE,49,0.0,0.0,48,0.00,,---,0.00,VWS V14.00,2013-08-15 18:44:00,
2013-08-15 12:49:00,75.6,54.0,29.93,NW,310,2.0,2.0,47,0.00,,---,0.00,VWS V14.00,2013-08-15 18:49:00,
2013-08-15 12:56:00,76.0,53.2,29.93,NNE,30,1.0,3.0,45,0.00,,---,0.00,VWS V14.00,2013-08-15 18:56:00,
2013-08-15 13:03:00,76.5,53.6,29.92,NNE,15,0.0,1.0,45,0.00,,---,0.00,VWS V14.00,2013-08-15 19:03:00,
2013-08-15 13:09:00,77.0,58.0,29.91,NNE,26,0.0,0.0,52,0.00,,---,0.00,VWS V14.00,2013-08-15 19:09:00,
2013-08-15 13:15:00,77.5,53.3,29.92,NE,37,3.0,3.0,43,0.00,,---,0.00,VWS V14.00,2013-08-15 19:15:00,
2013-08-15 13:20:00,77.6,54.0,29.92,East,80,0.0,1.0,44,0.00,,---,0.00,VWS V14.00,2013-08-15 19:20:00,
2013-08-15 13:27:00,78.0,55.6,29.92,East,91,0.0,0.0,46,0.00,,---,0.00,VWS V14.00,2013-08-15 19:27:00,
2013-08-15 13:32:00,77.8,54.8,29.92,East,91,0.0,0.0,45,0.00,,---,0.00,VWS V14.00,2013-08-15 19:32:00,
2013-08-15 13:37:00,77.9,56.7,29.91,East,92,0.0,0.0,48,0.00,,---,0.00,VWS V14.00,2013-08-15 19:37:00,
2013-08-15 13:42:00,78.7,58.0,29.90,East,92,0.0,0.0,49,0.00,,---,0.00,VWS V14.00,2013-08-15 19:42:00,
2013-08-15 13:47:00,78.9,57.6,29.91,East,92,0.0,0.0,48,0.00,,---,0.00,VWS V14.00,2013-08-15 19:47:00,
2013-08-15 13:52:00,79.1,56.6,29.90,ESE,121,0.0,1.0,46,0.00,,---,0.00,VWS V14.00,2013-08-15 19:52:00,
2013-08-15 13:58:00,79.9,53.5,29.90,SE,127,0.0,1.0,40,0.00,,---,0.00,VWS V14.00,2013-08-15 19:58:00,
2013-08-15 14:03:00,79.7,54.6,29.90,SE,126,1.0,1.0,42,0.00,,---,0.00,VWS V14.00,2013-08-15 20:03:00,
2013-08-15 14:10:00,80.0,54.2,29.89,ESE,113,0.0,1.0,41,0.00,,---,0.00,VWS V14.00,2013-08-15 20:10:00,
2013-08-15 14:16:00,80.5,54.7,29.88,ESE,113,0.0,1.0,41,0.00,,---,0.00,VWS V14.00,2013-08-15 20:16:00,
2013-08-15 14:22:00,81.1,53.1,29.89,NE,42,3.0,3.0,38,0.00,,---,0.00,VWS V14.00,2013-08-15 20:22:00,
2013-08-15 14:27:00,81.4,56.8,29.88,NE,44,0.0,1.0,43,0.00,,---,0.00,VWS V14.00,2013-08-15 20:27:00,
2013-08-15 14:33:00,81.4,53.4,29.88,East,97,0.0,0.0,38,0.00,,---,0.00,VWS V14.00,2013-08-15 20:33:00,
2013-08-15 14:39:00,82.1,53.3,29.87,ESE,111,0.0,3.0,37,0.00,,---,0.00,VWS V14.00,2013-08-15 20:39:00,
2013-08-15 14:44:00,82.1,54.0,29.87,ESE,110,0.0,1.0,38,0.00,,---,0.00,VWS V14.00,2013-08-15 20:44:00,
2013-08-15 14:50:00,82.2,54.8,29.87,ESE,114,0.0,0.0,39,0.00,,---,0.00,VWS V14.00,2013-08-15 20:50:00,
2013-08-15 14:55:00,82.5,52.1,29.87,ESE,114,0.0,0.0,35,0.00,,---,0.00,VWS V14.00,2013-08-15 20:55:00,
2013-08-15 15:00:00,82.1,50.2,29.88,ESE,105,0.0,1.0,33,0.00,,---,0.00,VWS V14.00,2013-08-15 21:00:00,
2013-08-15 15:06:00,82.8,50.0,29.87,NNE,30,0.0,1.0,32,0.00,,---,0.00,VWS V14.00,2013-08-15 21:06:00,
2013-08-15 15:11:00,83.4,48.8,29.86,NE,48,1.0,3.0,30,0.00,,---,0.00,VWS V14.00,2013-08-15 21:11:00,
2013-08-15 15:16:00,83.2,49.5,29.86,NE,46,0.0,0.0,31,0.00,,---,0.00,VWS V14.00,2013-08-15 21:16:00,
2013-08-15 15:21:00,83.3,49.5,29.86,North,360,0.0,4.0,31,0.00,,---,0.00,VWS V14.00,2013-08-15 21:21:00,
2013-08-15 15:27:00,83.9,50.1,29.86,NE,44,3.0,3.0,31,0.00,,---,0.00,VWS V14.00,2013-08-15 21:27:00,
2013-08-15 15:32:00,83.9,48.3,29.86,ENE,61,0.0,1.0,29,0.00,,---,0.00,VWS V14.00,2013-08-15 21:32:00,
2013-08-15 15:38:00,83.6,49.8,29.86,NW,306,0.0,0.0,31,0.00,,---,0.00,VWS V14.00,2013-08-15 21:38:00,
2013-08-15 15:44:00,83.3,52.8,29.85,NE,45,0.0,1.0,35,0.00,,---,0.00,VWS V14.00,2013-08-15 21:44:00,
2013-08-15 15:49:00,83.4,47.8,29.85,NE,45,0.0,0.0,29,0.00,,---,0.00,VWS V14.00,2013-08-15 21:49:00,
2013-08-15 15:54:00,83.2,50.3,29.85,NE,41,0.0,3.0,32,0.00,,---,0.00,VWS V14.00,2013-08-15 21:54:00,
2013-08-15 15:59:00,83.5,48.8,29.85,East,91,1.0,2.0,30,0.00,,---,0.00,VWS V14.00,2013-08-15 21:59:00,
2013-08-15 16:05:00,83.7,50.7,29.84,NNE,33,0.0,1.0,32,0.00,,---,0.00,VWS V14.00,2013-08-15 22:05:00,
2013-08-15 16:11:00,83.4,47.8,29.85,ESE,113,0.0,2.0,29,0.00,,---,0.00,VWS V14.00,2013-08-15 22:11:00,
2013-08-15 16:16:00,83.2,47.7,29.85,ESE,120,0.0,2.0,29,0.00,,---,0.00,VWS V14.00,2013-08-15 22:16:00,
2013-08-15 16:21:00,83.3,48.7,29.85,NE,51,4.0,4.0,30,0.00,,---,0.00,VWS V14.00,2013-08-15 22:21:00,
2013-08-15 16:27:00,83.6,48.9,29.84,SE,143,0.0,1.0,30,0.00,,---,0.00,VWS V14.00,2013-08-15 22:27:00,
2013-08-15 16:33:00,83.4,48.8,29.85,NNW,336,0.0,4.0,30,0.00,,---,0.00,VWS V14.00,2013-08-15 22:33:00,
2013-08-15 16:38:00,82.9,48.3,29.85,NNW,336,0.0,0.0,30,0.00,,---,0.00,VWS V14.00,2013-08-15 22:38:00,
2013-08-15 16:43:00,83.2,48.6,29.85,NNE,15,1.0,1.0,30,0.00,,---,0.00,VWS V14.00,2013-08-15 22:43:00,
2013-08-15 16:49:00,83.4,46.9,29.86,NNW,348,0.0,4.0,28,0.00,,---,0.00,VWS V14.00,2013-08-15 22:49:00,
2013-08-15 16:54:00,82.9,46.5,29.86,NNW,336,2.0,5.0,28,0.00,,---,0.00,VWS V14.00,2013-08-15 22:54:00,
2013-08-15 16:59:00,83.5,47.0,29.84,ESE,102,1.0,2.0,28,0.00,,---,0.00,VWS V14.00,2013-08-15 22:59:00,
2013-08-15 17:04:00,83.3,49.5,29.84,West,269,0.0,1.0,31,0.00,,---,0.00,VWS V14.00,2013-08-15 23:04:00,
2013-08-15 17:10:00,83.4,49.6,29.85,NW,309,0.0,0.0,31,0.00,,---,0.00,VWS V14.00,2013-08-15 23:10:00,
2013-08-15 17:15:00,83.4,46.0,29.86,NE,44,0.0,2.0,27,0.00,,---,0.00,VWS V14.00,2013-08-15 23:15:00,
2013-08-15 17:20:00,83.2,46.7,29.87,NE,44,0.0,0.0,28,0.00,,---,0.00,VWS V14.00,2013-08-15 23:20:00,
2013-08-15 17:26:00,83.6,48.9,29.86,North,5,1.0,1.0,30,0.00,,---,0.00,VWS V14.00,2013-08-15 23:26:00,
2013-08-15 17:31:00,84.0,49.3,29.86,NE,49,2.0,3.0,30,0.00,,---,0.00,VWS V14.00,2013-08-15 23:31:00,
2013-08-15 17:36:00,83.5,48.8,29.86,NNE,28,0.0,1.0,30,0.00,,---,0.00,VWS V14.00,2013-08-15 23:36:00,
2013-08-15 17:42:00,83.0,49.3,29.87,NNE,26,1.0,1.0,31,0.00,,---,0.00,VWS V14.00,2013-08-15 23:42:00,
2013-08-15 17:47:00,83.0,47.5,29.88,North,5,0.0,3.0,29,0.00,,---,0.00,VWS V14.00,2013-08-15 23:47:00,
2013-08-15 17:53:00,82.4,44.1,29.89,NW,307,6.0,11.0,26,0.00,,---,0.00,VWS V14.00,2013-08-15 23:53:00,
2013-08-15 17:58:00,81.9,44.7,29.89,North,5,0.0,1.0,27,0.00,,---,0.00,VWS V14.00,2013-08-15 23:58:00,
2013-08-15 18:04:00,81.1,44.9,29.88,North,350,0.0,0.0,28,0.00,,---,0.00,VWS V14.00,2013-08-16 00:04:00,
2013-08-15 18:10:00,80.1,45.0,29.88,NE,55,0.0,3.0,29,0.00,,---,0.00,VWS V14.00,2013-08-16 00:10:00,
2013-08-15 18:16:00,80.6,43.6,29.88,ENE,64,7.0,7.0,27,0.00,,---,0.00,VWS V14.00,2013-08-16 00:16:00,
2013-08-15 18:22:00,81.4,42.2,29.89,NE,49,8.0,13.0,25,0.00,,---,0.00,VWS V14.00,2013-08-16 00:22:00,
2013-08-15 18:28:00,80.9,42.8,29.90,SSE,153,1.0,6.0,26,0.00,,---,0.00,VWS V14.00,2013-08-16 00:28:00,
2013-08-15 18:34:00,80.0,42.1,29.86,NNE,29,0.0,2.0,26,0.00,,---,0.00,VWS V14.00,2013-08-16 00:34:00,
2013-08-15 18:40:00,80.1,43.1,29.88,NNW,348,0.0,1.0,27,0.00,,---,0.00,VWS V14.00,2013-08-16 00:40:00,
2013-08-15 18:45:00,80.8,41.7,29.87,North,9,1.0,3.0,25,0.00,,---,0.00,VWS V14.00,2013-08-16 00:45:00,
2013-08-15 18:50:00,81.2,42.1,29.87,NW,315,0.0,5.0,25,0.00,,---,0.00,VWS V14.00,2013-08-16 00:50:00,
2013-08-15 18:55:00,81.1,43.0,29.86,NE,44,0.0,1.0,26,0.00,,---,0.00,VWS V14.00,2013-08-16 00:55:00,
2013-08-15 19:00:00,80.6,42.6,29.87,NE,42,0.0,0.0,26,0.00,,---,0.00,VWS V14.00,2013-08-16 01:00:00,
2013-08-15 19:06:00,79.6,42.7,29.86,NE,41,0.0,0.0,27,0.00,,---,0.00,VWS V14.00,2013-08-16 01:06:00,
2013-08-15 19:11:00,78.5,44.5,29.88,NE,41,0.0,0.0,30,0.00,,---,0.00,VWS V14.00,2013-08-16 01:11:00,
2013-08-15 19:17:00,77.0,44.1,29.89,NE,42,0.0,0.0,31,0.00,,---,0.00,VWS V14.00,2013-08-16 01:17:00,
2013-08-15 19:23:00,77.5,44.5,29.90,NE,41,0.0,0.0,31,0.00,,---,0.00,VWS V14.00,2013-08-16 01:23:00,
2013-08-15 19:28:00,78.0,44.1,29.89,NNE,33,3.0,3.0,30,0.00,,---,0.00,VWS V14.00,2013-08-16 01:28:00,
2013-08-15 19:33:00,78.4,44.4,29.89,North,355,0.0,4.0,30,0.00,,---,0.00,VWS V14.00,2013-08-16 01:33:00,
2013-08-15 19:39:00,78.3,46.0,29.89,ENE,59,0.0,1.0,32,0.00,,---,0.00,VWS V14.00,2013-08-16 01:39:00,
2013-08-15 19:44:00,77.9,47.3,29.89,East,98,0.0,2.0,34,0.00,,---,0.00,VWS V14.00,2013-08-16 01:44:00,
2013-08-15 19:49:00,76.8,47.1,29.89,East,98,0.0,0.0,35,0.00,,---,0.00,VWS V14.00,2013-08-16 01:49:00,
2013-08-15 19:54:00,76.3,47.4,29.90,East,94,0.0,0.0,36,0.00,,---,0.00,VWS V14.00,2013-08-16 01:54:00,
2013-08-15 19:59:00,76.3,47.4,29.90,East,101,0.0,0.0,36,0.00,,---,0.00,VWS V14.00,2013-08-16 01:59:00,
2013-08-15 20:04:00,75.8,47.7,29.89,East,101,0.0,0.0,37,0.00,,---,0.00,VWS V14.00,2013-08-16 02:04:00,
2013-08-15 20:09:00,75.4,47.3,29.90,East,101,0.0,0.0,37,0.00,,---,0.00,VWS V14.00,2013-08-16 02:09:00,
2013-08-15 20:14:00,75.1,47.8,29.90,East,101,0.0,0.0,38,0.00,,---,0.00,VWS V14.00,2013-08-16 02:14:00,
2013-08-15 20:19:00,74.4,47.2,29.90,East,101,0.0,0.0,38,0.00,,---,0.00,VWS V14.00,2013-08-16 02:19:00,
2013-08-15 20:24:00,74.2,47.7,29.92,East,101,0.0,0.0,39,0.00,,---,0.00,VWS V14.00,2013-08-16 02:24:00,
2013-08-15 20:29:00,73.8,48.0,29.92,East,101,0.0,0.0,40,0.00,,---,0.00,VWS V14.00,2013-08-16 02:29:00,
2013-08-15 20:34:00,73.3,47.5,29.93,East,101,0.0,0.0,40,0.00,,---,0.00,VWS V14.00,2013-08-16 02:34:00,
2013-08-15 20:40:00,73.3,47.5,29.93,East,101,0.0,0.0,40,0.00,,---,0.00,VWS V14.00,2013-08-16 02:40:00,
2013-08-15 20:45:00,73.3,48.2,29.93,East,101,0.0,0.0,41,0.00,,---,0.00,VWS V14.00,2013-08-16 02:45:00,
2013-08-15 20:50:00,73.1,48.7,29.93,East,101,0.0,0.0,42,0.00,,---,0.00,VWS V14.00,2013-08-16 02:50:00,
2013-08-15 20:55:00,72.8,49.6,29.93,East,101,0.0,0.0,44,0.00,,---,0.00,VWS V14.00,2013-08-16 02:55:00,
2013-08-15 21:00:00,72.5,48.8,29.93,East,101,0.0,0.0,43,0.00,,---,0.00,VWS V14.00,2013-08-16 03:00:00,
2013-08-15 21:05:00,72.7,48.9,29.92,East,101,0.0,0.0,43,0.00,,---,0.00,VWS V14.00,2013-08-16 03:05:00,
2013-08-15 21:10:00,72.9,49.1,29.93,East,101,0.0,0.0,43,0.00,,---,0.00,VWS V14.00,2013-08-16 03:10:00,
2013-08-15 21:16:00,72.5,48.8,29.93,East,101,0.0,0.0,43,0.00,,---,0.00,VWS V14.00,2013-08-16 03:16:00,
2013-08-15 21:21:00,72.3,48.6,29.94,East,101,0.0,0.0,43,0.00,,---,0.00,VWS V14.00,2013-08-16 03:21:00,
2013-08-15 21:26:00,71.9,48.2,29.94,East,101,0.0,1.0,43,0.00,,---,0.00,VWS V14.00,2013-08-16 03:26:00,
2013-08-15 21:31:00,71.4,48.4,29.94,East,101,0.0,1.0,44,0.00,,---,0.00,VWS V14.00,2013-08-16 03:31:00,
2013-08-15 21:36:00,71.3,48.3,29.95,East,101,0.0,0.0,44,0.00,,---,0.00,VWS V14.00,2013-08-16 03:36:00,
2013-08-15 21:41:00,70.8,48.4,29.94,East,101,0.0,0.0,45,0.00,,---,0.00,VWS V14.00,2013-08-16 03:41:00,
2013-08-15 21:46:00,70.5,49.3,29.94,East,101,0.0,0.0,47,0.00,,---,0.00,VWS V14.00,2013-08-16 03:46:00,
2013-08-15 21:51:00,70.1,49.0,29.96,East,101,0.0,0.0,47,0.00,,---,0.00,VWS V14.00,2013-08-16 03:51:00,
2013-08-15 21:56:00,69.9,48.8,29.96,East,101,0.0,0.0,47,0.00,,---,0.00,VWS V14.00,2013-08-16 03:56:00,
2013-08-15 22:01:00,69.5,49.0,29.96,East,101,0.0,0.0,48,0.00,,---,0.00,VWS V14.00,2013-08-16 04:01:00,
2013-08-15 22:02:00,69.5,49.0,29.95,East,101,0.0,0.0,48,0.00,,---,0.00,VWS V14.00,2013-08-16 04:02:00,
2013-08-15 22:03:00,69.5,49.0,29.94,East,101,0.0,0.0,48,0.00,,---,0.00,VWS V14.00,2013-08-16 04:03:00,
2013-08-15 22:04:00,69.4,48.9,29.95,East,101,0.0,0.0,48,0.00,,---,0.00,VWS V14.00,2013-08-16 04:04:00,
2013-08-15 22:07:00,69.3,48.8,29.96,East,101,0.0,0.0,48,0.00,,---,0.00,VWS V14.00,2013-08-16 04:07:00,
2013-08-15 22:12:00,68.8,48.3,29.96,East,101,0.0,0.0,48,0.00,,---,0.00,VWS V14.00,2013-08-16 04:12:00,
2013-08-15 22:17:00,68.5,48.6,29.96,East,101,0.0,0.0,49,0.00,,---,0.00,VWS V14.00,2013-08-16 04:17:00,
2013-08-15 22:22:00,68.2,48.9,29.96,East,101,0.0,0.0,50,0.00,,---,0.00,VWS V14.00,2013-08-16 04:22:00,
2013-08-15 22:27:00,67.8,49.0,29.96,East,101,0.0,0.0,51,0.00,,---,0.00,VWS V14.00,2013-08-16 04:27:00,
2013-08-15 22:32:00,67.4,49.7,29.97,East,101,0.0,0.0,53,0.00,,---,0.00,VWS V14.00,2013-08-16 04:32:00,
2013-08-15 22:37:00,66.9,48.7,29.97,East,101,0.0,0.0,52,0.00,,---,0.00,VWS V14.00,2013-08-16 04:37:00,
2013-08-15 22:42:00,66.6,49.0,29.97,East,101,0.0,0.0,53,0.00,,---,0.00,VWS V14.00,2013-08-16 04:42:00,
2013-08-15 22:47:00,66.4,49.3,29.97,East,101,0.0,0.0,54,0.00,,---,0.00,VWS V14.00,2013-08-16 04:47:00,
2013-08-15 22:52:00,66.3,49.2,29.98,East,101,0.0,0.0,54,0.00,,---,0.00,VWS V14.00,2013-08-16 04:52:00,
2013-08-15 22:57:00,66.0,49.9,29.98,East,101,0.0,0.0,56,0.00,,---,0.00,VWS V14.00,2013-08-16 04:57:00,
2013-08-15 23:02:00,65.9,49.8,29.97,East,101,0.0,0.0,56,0.00,,---,0.00,VWS V14.00,2013-08-16 05:02:00,
2013-08-15 23:07:00,65.7,50.1,29.97,East,101,0.0,0.0,57,0.00,,---,0.00,VWS V14.00,2013-08-16 05:07:00,
2013-08-15 23:12:00,65.4,50.2,29.98,East,101,0.0,0.0,58,0.00,,---,0.00,VWS V14.00,2013-08-16 05:12:00,
2013-08-15 23:20:00,65.1,50.0,29.98,East,101,0.0,0.0,58,0.00,,---,0.00,VWS V14.00,2013-08-16 05:20:00,
2013-08-15 23:25:00,64.8,50.2,29.98,East,101,0.0,0.0,59,0.00,,---,0.00,VWS V14.00,2013-08-16 05:25:00,
2013-08-15 23:30:00,64.7,50.5,29.98,East,101,0.0,0.0,60,0.00,,---,0.00,VWS V14.00,2013-08-16 05:30:00,
2013-08-15 23:35:00,64.6,50.4,29.98,East,101,0.0,0.0,60,0.00,,---,0.00,VWS V14.00,2013-08-16 05:35:00,
2013-08-15 23:40:00,64.3,50.1,29.98,East,101,0.0,0.0,60,0.00,,---,0.00,VWS V14.00,2013-08-16 05:40:00,
2013-08-15 23:45:00,64.3,50.1,29.98,East,101,0.0,0.0,60,0.00,,---,0.00,VWS V14.00,2013-08-16 05:45:00,
2013-08-15 23:50:00,64.2,50.0,29.98,East,101,0.0,0.0,60,0.00,,---,0.00,VWS V14.00,2013-08-16 05:50:00,
2013-08-15 23:55:00,64.1,50.0,29.98,East,101,0.0,0.0,60,0.00,,---,0.00,VWS V14.00,2013-08-16 05:55:00,